Location: Vlissingen
(51.4500°N, 3.5830°E)
Time: 11:49:40
(UTC+01:00)

N. Korean satellite - Pass Details

Date: 06 December 2021
Orbit: 447 x 491 km, 97.3° (Epoch: 20 January)

Event Time Altitude Azimuth Distance (km) Brightness Sun altitude
Rises 06:24:26 0° 10° (N) 2,472 10.1 -19.3°
Reaches altitude 10° 06:26:29 10° 8° (N) 1,590 9.1 -19.0°
Maximum altitude 06:29:51 64° 286° (WNW) 501 6.3 -18.5°
Drops below altitude 10° 06:33:11 10° 205° (SSW) 1,573 9.0 -18.0°
Sets 06:35:13 0° 202° (SSW) 2,441 10.1 -17.7°
